GW1685 Weather Reports


Display with metric or nautical units.
time (UTC)temp
F
wind
direction
speed
MPH
gust
MPH
rain 1hr
in
rain 24hr
in
rain mn
in
humidity
%
barometer
mb
20260906165349 78 118 2.0 3.0 0.00 0.00 0.00 77 1021.2
20260906164844 78 96 5.0 6.0 0.00 0.00 0.00 77 1021.3
20260906164343 79 84 3.0 5.0 0.00 0.00 0.00 77 1021.3
20260906163839 78 182 2.0 5.0 0.00 0.00 0.00 78 1021.1
20260906163335 78 67 1.0 3.0 0.00 0.00 0.00 79 1021.3
20260906162833 78 112 2.0 3.0 0.00 0.00 0.00 78 1021.5
20260906162332 78 131 1.0 2.0 0.00 0.00 0.00 79 1021.5
20260906161827 78 110 2.0 3.0 0.00 0.00 0.00 80 1021.7
20260906161326 76 86 0.0 2.0 0.00 0.00 0.00 82 1021.8
20260906160825 76 82 4.0 8.0 0.00 0.00 0.00 82 1022.0
20260906160319 77 139 1.0 2.0 0.00 0.00 0.00 81 1021.9
20260906155817 77 50 3.0 3.0 0.00 0.00 0.00 82 1022.0
20260906155312 77 120 2.0 2.0 0.00 0.00 0.00 82 1021.9
20260906154808 76 89 0.0 0.0 0.00 0.00 0.00 83 1022.0
20260906154302 75 114 3.0 5.0 0.00 0.00 0.00 84 1021.9
20260906153800 75 181 3.0 3.0 0.00 0.00 0.00 85 1021.9
20260906153255 75 109 1.0 2.0 0.00 0.00 0.00 85 1021.8
20260906152750 76 122 2.0 3.0 0.00 0.00 0.00 84 1021.7
20260906152245 76 172 5.0 6.0 0.00 0.00 0.00 85 1021.8
20260906151744 75 97 2.0 3.0 0.00 0.00 0.00 85 1021.7
20260906151240 75 118 2.0 3.0 0.00 0.00 0.00 85 1022.1
20260906150736 75 84 0.0 0.0 0.00 0.00 0.00 86 1022.0
20260906150231 75 104 1.0 2.0 0.00 0.00 0.00 87 1021.7
20260906145730 74 108 1.0 3.0 0.00 0.00 0.00 89 1021.9
20260906145229 73 129 0.0 2.0 0.00 0.00 0.00 91 1021.7
20260906144724 72 91 0.0 2.0 0.00 0.00 0.00 93 1021.3
20260906144219 72 130 0.0 3.0 0.00 0.00 0.00 94 1021.5
20260906143718 72 84 2.0 3.0 0.00 0.00 0.00 94 1021.7
20260906143216 72 99 0.0 0.0 0.00 0.00 0.00 94 1021.8
20260906142715 72 120 0.0 2.0 0.00 0.00 0.00 94 1021.1
20260906142211 72 152 2.0 3.0 0.00 0.00 0.00 94 1021.5
20260906141709 72 67 1.0 2.0 0.00 0.00 0.00 95 1021.3
20260906141204 71 99 1.0 2.0 0.00 0.00 0.00 97 1021.3
20260906140703 70 45 3.0 5.0 0.00 0.00 0.00 99 1021.4
20260906140159 69 101 1.0 2.0 0.00 0.00 0.00 99 1021.5
20260906135655 68 174 2.0 5.0 0.00 0.00 0.00 99 1021.4
20260906135151 67 101 0.0 0.0 0.00 0.00 0.00 99 1021.5
20260906134647 67 76 2.0 3.0 0.00 0.00 0.00 99 1021.7
20260906134142 67 84 0.0 0.0 0.00 0.00 0.00 99 1021.5
20260906133637 67 96 0.0 2.0 0.00 0.00 0.00 99 1021.4
20260906133132 67 93 0.0 0.0 0.00 0.00 0.00 99 1021.4
20260906132627 66 92 0.0 0.0 0.00 0.00 0.00 99 1021.5
20260906132123 66 109 0.0 0.0 0.00 0.00 0.00 99 1021.7
20260906131618 66 100 0.0 0.0 0.00 0.00 0.00 99 1021.4
20260906131113 65 99 0.0 0.0 0.00 0.00 0.00 99 1021.5
20260906130608 64 93 0.0 0.0 0.00 0.00 0.00 99 1021.3
20260906130103 64 92 0.0 0.0 0.00 0.00 0.00 99 1021.4
20260906125555 64 102 0.0 0.0 0.00 0.00 0.00 99 1021.4
20260906125054 64 99 0.0 0.0 0.00 0.00 0.00 99 1021.5
20260906124550 64 90 0.0 0.0 0.00 0.00 0.00 99 1021.4
20260906124045 63 90 0.0 0.0 0.00 0.00 0.00 99 1021.4
20260906123544 63 96 0.0 0.0 0.00 0.00 0.00 99 1021.7
20260906123039 63 100 0.0 0.0 0.00 0.00 0.00 99 1021.5
20260906122533 62 97 0.0 0.0 0.00 0.00 0.00 99 1021.3
20260906122030 62 98 0.0 0.0 0.00 0.00 0.00 99 1021.3
20260906121525 62 97 0.0 0.0 0.00 0.00 0.00 99 1021.4
20260906121021 62 102 0.0 0.0 0.00 0.00 0.00 99 1021.3
20260906120516 62 94 0.0 0.0 0.00 0.00 0.00 99 1020.9
20260906120014 62 101 0.0 0.0 0.00 0.00 0.00 99 1021.1
20260906115513 62 97 0.0 0.0 0.00 0.00 0.00 99 1021.1
20260906115008 62 96 0.0 0.0 0.00 0.00 0.00 99 1021.0
20260906114502 62 97 0.0 0.0 0.00 0.00 0.00 99 1021.0
20260906113958 62 96 0.0 0.0 0.00 0.00 0.00 99 1021.1
20260906113456 62 98 0.0 0.0 0.00 0.00 0.00 99 1021.1
20260906112952 62 97 0.0 0.0 0.00 0.00 0.00 99 1020.9
20260906112447 62 99 0.0 0.0 0.00 0.00 0.00 99 1020.8
20260906111943 63 93 0.0 0.0 0.00 0.00 0.00 99 1021.1
20260906111442 63 94 0.0 0.0 0.00 0.00 0.00 99 1021.2
20260906110937 62 91 0.0 0.0 0.00 0.00 0.00 99 1021.1
20260906110433 63 90 0.0 0.0 0.00 0.00 0.00 99 1020.9
20260906105932 62 92 0.0 0.0 0.00 0.00 0.00 99 1020.7
20260906105428 62 93 0.0 0.0 0.00 0.00 0.00 99 1020.6
20260906104924 62 93 0.0 0.0 0.00 0.00 0.00 99 1020.5
20260906104422 62 93 0.0 0.0 0.00 0.00 0.00 99 1020.8
20260906103922 62 92 0.0 0.0 0.00 0.00 0.00 99 1020.5
20260906103420 62 96 0.0 0.0 0.00 0.00 0.00 99 1020.5
20260906102916 62 96 0.0 0.0 0.00 0.00 0.00 99 1020.5
20260906102415 62 96 0.0 0.0 0.00 0.00 0.00 99 1020.6
20260906101910 62 95 0.0 0.0 0.00 0.00 0.00 99 1020.2
20260906101405 62 95 0.0 0.0 0.00 0.00 0.00 99 1020.3
20260906100901 62 100 0.0 0.0 0.00 0.00 0.00 99 1020.2
20260906100400 63 100 0.0 0.0 0.00 0.00 0.00 99 1020.2
20260906095854 62 99 0.0 0.0 0.00 0.00 0.00 99 1020.0
20260906095350 62 100 0.0 0.0 0.00 0.00 0.00 99 1020.1
20260906094844 63 99 0.0 0.0 0.00 0.00 0.00 99 1019.9
20260906094339 63 99 0.0 0.0 0.00 0.00 0.00 99 1020.0
20260906093835 63 99 0.0 0.0 0.00 0.00 0.00 99 1019.9
20260906093331 64 99 0.0 0.0 0.00 0.00 0.00 99 1020.0
20260906092825 64 99 0.0 0.0 0.00 0.00 0.00 99 1019.9
20260906092320 64 96 0.0 0.0 0.00 0.00 0.00 99 1019.9
20260906091815 64 99 0.0 0.0 0.00 0.00 0.00 99 1020.2
20260906091312 64 97 0.0 0.0 0.00 0.00 0.00 99 1020.1
20260906090808 64 98 0.0 0.0 0.00 0.00 0.00 99 1020.2
20260906090307 64 99 0.0 0.0 0.00 0.00 0.00 99 1020.2
20260906085806 64 99 0.0 0.0 0.00 0.00 0.00 99 1020.3
20260906085259 64 98 0.0 0.0 0.00 0.00 0.00 99 1020.0
20260906084755 64 98 0.0 0.0 0.00 0.00 0.00 99 1020.3
20260906084254 64 100 0.0 0.0 0.00 0.00 0.00 99 1020.0
20260906083749 64 97 0.0 0.0 0.00 0.00 0.00 99 1020.1
20260906083245 64 96 0.0 0.0 0.00 0.00 0.00 99 1020.1
20260906082739 64 96 0.0 0.0 0.00 0.00 0.00 99 1020.2
20260906082234 64 98 0.0 0.0 0.00 0.00 0.00 99 1020.2
20260906081731 64 100 0.0 0.0 0.00 0.00 0.00 99 1020.1
20260906081225 64 92 0.0 0.0 0.00 0.00 0.00 99 1020.0
20260906080722 64 98 0.0 0.0 0.00 0.00 0.00 99 1020.1
20260906080218 64 82 0.0 0.0 0.00 0.00 0.00 99 1020.0
20260906075718 64 92 0.0 0.0 0.00 0.00 0.00 99 1020.0
20260906075212 64 103 0.0 0.0 0.00 0.00 0.00 99 1019.6
20260906074708 64 104 0.0 0.0 0.00 0.00 0.00 99 1019.7
20260906074207 64 102 0.0 0.0 0.00 0.00 0.00 99 1019.9
20260906073702 64 100 0.0 0.0 0.00 0.00 0.00 99 1019.9
20260906073157 64 100 0.0 0.0 0.00 0.00 0.00 99 1020.0
20260906072652 64 100 0.0 0.0 0.00 0.00 0.00 99 1020.1
20260906072148 64 100 0.0 0.0 0.00 0.00 0.00 99 1020.1
20260906071644 64 100 0.0 0.0 0.00 0.00 0.00 99 1020.0
20260906071143 64 96 0.0 0.0 0.00 0.00 0.00 99 1020.4
20260906070640 64 95 0.0 0.0 0.00 0.00 0.00 99 1020.1
20260906070136 64 100 0.0 0.0 0.00 0.00 0.00 99 1020.4
20260906065635 64 82 0.0 0.0 0.00 0.00 0.00 99 1020.3
20260906065131 64 98 0.0 0.0 0.00 0.00 0.00 99 1020.5
20260906064626 64 97 0.0 0.0 0.00 0.00 0.00 99 1020.2
20260906064121 65 96 0.0 0.0 0.00 0.00 0.00 99 1020.5
20260906063616 65 98 0.0 0.0 0.00 0.00 0.00 99 1020.6
20260906063112 65 96 0.0 0.0 0.00 0.00 0.00 99 1020.6
20260906062608 65 95 0.0 0.0 0.00 0.00 0.00 99 1020.6
20260906062106 65 96 0.0 0.0 0.00 0.00 0.00 99 1020.4
20260906061603 65 91 0.0 0.0 0.00 0.00 0.00 99 1020.4
20260906061102 66 95 0.0 0.0 0.00 0.00 0.00 99 1020.3
20260906060559 66 105 0.0 0.0 0.00 0.00 0.00 99 1020.2
20260906060056 66 92 0.0 0.0 0.00 0.00 0.00 99 1020.3
20260906055551 66 100 0.0 0.0 0.00 0.00 0.00 99 1020.4
20260906055046 66 92 0.0 0.0 0.00 0.00 0.00 99 1020.3
20260906054541 67 101 0.0 0.0 0.00 0.00 0.00 99 1020.2
20260906054036 67 92 0.0 0.0 0.00 0.00 0.00 99 1020.4
20260906053533 67 97 0.0 0.0 0.00 0.00 0.00 99 1020.4
20260906053028 67 95 0.0 0.0 0.00 0.00 0.00 99 1020.2
20260906052524 67 84 0.0 0.0 0.00 0.00 0.00 99 1020.4
20260906052021 67 86 0.0 0.0 0.00 0.00 0.00 99 1020.3
20260906051516 67 96 0.0 0.0 0.00 0.00 0.00 99 1020.3
20260906051012 67 95 0.0 0.0 0.00 0.00 0.00 99 1020.5
20260906050512 67 98 0.0 0.0 0.00 0.00 0.00 99 1020.2
20260906050006 67 100 0.0 0.0 0.00 0.00 0.00 99 1020.3
20260906045505 67 97 0.0 0.0 0.00 0.00 0.00 99 1020.4
20260906045000 67 99 0.0 0.0 0.00 0.00 0.00 99 1020.3
20260906044455 67 102 0.0 0.0 0.00 0.00 0.00 99 1020.2
20260906043951 67 100 0.0 0.0 0.00 0.00 0.00 99 1020.4
20260906043447 67 100 0.0 0.0 0.00 0.00 0.00 99 1020.3
20260906042943 67 100 0.0 0.0 0.00 0.00 0.00 99 1020.4
20260906042442 67 100 0.0 0.0 0.00 0.00 0.00 99 1020.5
20260906041936 67 99 0.0 0.0 0.00 0.00 0.00 99 1020.2
20260906041433 68 99 0.0 0.0 0.00 0.00 0.00 99 1020.1
20260906040932 68 99 0.0 0.0 0.00 0.00 0.00 99 1020.3
20260906040427 68 100 0.0 0.0 0.00 0.00 0.00 99 1020.3
20260906035922 68 93 0.0 0.0 0.00 0.00 0.00 98 1020.3
20260906035418 68 92 0.0 0.0 0.00 0.00 0.00 98 1020.3
20260906034913 68 108 0.0 0.0 0.00 0.00 0.00 98 1020.1
20260906034414 68 92 0.0 0.0 0.00 0.00 0.00 98 1020.4
20260906033909 69 92 0.0 0.0 0.00 0.00 0.00 97 1020.2
20260906033409 69 93 0.0 0.0 0.00 0.00 0.00 97 1020.2
20260906032904 68 92 0.0 0.0 0.00 0.00 0.00 97 1020.4
20260906032401 69 93 0.0 0.0 0.00 0.00 0.00 97 1020.2
20260906031855 69 95 0.0 0.0 0.00 0.00 0.00 97 1020.5
20260906031350 69 96 0.0 0.0 0.00 0.00 0.00 96 1020.2
20260906030846 69 96 0.0 0.0 0.00 0.00 0.00 96 1020.3
20260906030340 69 96 0.0 0.0 0.00 0.00 0.00 95 1020.2
20260906025835 70 96 0.0 0.0 0.00 0.00 0.00 95 1020.4
20260906025329 70 96 0.0 0.0 0.00 0.00 0.00 95 1020.5
20260906024828 70 97 0.0 0.0 0.00 0.00 0.00 94 1020.5
20260906024327 70 97 0.0 0.0 0.00 0.00 0.00 94 1020.2
20260906023823 71 97 0.0 0.0 0.00 0.00 0.00 94 1020.3
20260906023318 71 101 0.0 0.0 0.00 0.00 0.00 93 1020.3
20260906022814 71 119 0.0 0.0 0.00 0.00 0.00 93 1020.4
20260906022309 71 102 0.0 0.0 0.00 0.00 0.00 93 1020.4
20260906021805 71 91 0.0 0.0 0.00 0.00 0.00 93 1020.1
20260906021304 72 97 0.0 0.0 0.00 0.00 0.00 92 1020.0
20260906020759 72 88 0.0 0.0 0.00 0.00 0.00 92 1020.0
20260906020258 73 96 0.0 0.0 0.00 0.00 0.00 91 1020.1
20260906015758 73 144 1.0 2.0 0.00 0.00 0.00 91 1019.7
20260906015257 73 98 0.0 0.0 0.00 0.00 0.00 91 1019.8
20260906014752 73 93 0.0 0.0 0.00 0.00 0.00 91 1019.5
20260906014247 73 70 1.0 2.0 0.00 0.00 0.00 91 1019.4
20260906013743 73 91 0.0 0.0 0.00 0.00 0.00 91 1019.2
20260906013243 73 102 0.0 0.0 0.00 0.00 0.00 91 1018.7
20260906012739 73 106 0.0 0.0 0.00 0.00 0.00 90 1018.8
20260906012233 73 98 0.0 0.0 0.00 0.00 0.00 89 1019.0
20260906011729 73 102 0.0 0.0 0.00 0.00 0.00 89 1018.6
20260906011223 73 85 0.0 0.0 0.00 0.00 0.00 89 1018.2
20260906010718 73 66 0.0 0.0 0.00 0.00 0.00 89 1017.9
20260906010214 73 124 0.0 0.0 0.00 0.00 0.00 89 1017.6
20260906005709 74 110 0.0 0.0 0.00 0.00 0.00 89 1017.5
20260906005209 74 76 0.0 0.0 0.00 0.00 0.00 88 1017.6
20260906004708 75 90 0.0 0.0 0.00 0.00 0.00 87 1017.6
20260906004203 75 96 0.0 0.0 0.00 0.00 0.00 86 1017.8
20260906003658 76 97 0.0 0.0 0.00 0.00 0.00 84 1017.3
20260906003153 77 96 0.0 0.0 0.00 0.00 0.00 82 1017.5
20260906002648 77 99 0.0 0.0 0.00 0.00 0.00 81 1017.3
20260906002143 78 100 0.0 0.0 0.00 0.00 0.00 81 1017.2
20260906001638 78 99 0.0 0.0 0.00 0.00 0.00 80 1017.3
20260906001138 78 96 0.0 0.0 0.00 0.00 0.00 79 1017.2
20260906000633 79 100 0.0 0.0 0.00 0.00 0.00 78 1017.4
20260906000129 79 91 0.0 0.0 0.00 0.00 0.00 77 1017.3
20260905235628 80 103 0.0 0.0 0.00 0.00 0.00 76 1017.3
20260905235123 80 108 0.0 0.0 0.00 0.00 0.00 76 1017.2
20260905234618 80 80 0.0 0.0 0.00 0.00 0.00 76 1017.1
20260905234114 79 87 1.0 3.0 0.00 0.00 0.00 76 1017.1
20260905233608 80 84 0.0 0.0 0.00 0.00 0.00 76 1017.2
20260905233102 80 102 0.0 0.0 0.00 0.00 0.00 77 1017.5
20260905232558 80 105 0.0 0.0 0.00 0.00 0.00 77 1017.4
20260905232054 80 103 2.0 3.0 0.00 0.00 0.00 76 1017.8
20260905231548 80 116 1.0 2.0 0.00 0.00 0.00 76 1017.6
20260905231045 80 75 2.0 3.0 0.00 0.00 0.00 75 1017.8
20260905230544 80 78 0.0 2.0 0.00 0.00 0.00 75 1018.0
20260905230043 81 111 0.0 0.0 0.00 0.00 0.00 75 1018.0
20260905225537 81 77 1.0 2.0 0.00 0.00 0.00 75 1018.0
20260905225032 81 103 0.0 0.0 0.00 0.00 0.00 74 1018.1
20260905224527 81 74 0.0 2.0 0.00 0.00 0.00 75 1018.0
20260905224026 81 117 1.0 2.0 0.00 0.00 0.00 75 1018.1
20260905223519 81 103 2.0 3.0 0.00 0.00 0.00 75 1018.0
20260905223014 81 61 0.0 2.0 0.00 0.00 0.00 74 1018.3
20260905222514 82 97 1.0 3.0 0.00 0.00 0.00 75 1018.2
20260905222009 81 135 0.0 0.0 0.00 0.00 0.00 78 1018.1
20260905221506 81 104 0.0 2.0 0.00 0.00 0.00 78 1018.1
20260905221001 81 92 0.0 2.0 0.00 0.00 0.00 77 1018.2
20260905220457 81 99 0.0 2.0 0.00 0.00 0.00 77 1018.3
20260905215956 82 40 2.0 3.0 0.00 0.00 0.00 76 1018.2
20260905215452 81 80 1.0 2.0 0.00 0.00 0.00 76 1018.2
20260905214948 81 117 1.0 2.0 0.00 0.00 0.00 78 1018.4
20260905214443 80 78 1.0 2.0 0.00 0.00 0.00 78 1018.4
20260905213938 80 146 2.0 3.0 0.00 0.00 0.00 78 1018.3
20260905213434 80 67 3.0 3.0 0.00 0.00 0.00 78 1018.4
20260905212929 81 57 1.0 2.0 0.00 0.00 0.00 78 1018.5
20260905212424 80 104 1.0 2.0 0.00 0.00 0.00 79 1018.6
20260905211923 79 42 2.0 3.0 0.00 0.00 0.00 78 1018.6
20260905211419 80 46 3.0 3.0 0.00 0.00 0.00 78 1018.7
20260905210915 80 71 1.0 2.0 0.00 0.00 0.00 79 1018.7
20260905210415 80 132 1.0 2.0 0.00 0.00 0.00 79 1018.8
20260905205914 80 79 1.0 2.0 0.00 0.00 0.00 79 1019.0
20260905205409 79 33 3.0 5.0 0.00 0.00 0.00 78 1019.1
20260905204908 80 204 0.0 0.0 0.00 0.00 0.00 78 1019.2
20260905204404 81 62 1.0 2.0 0.00 0.00 0.00 76 1019.4
20260905203903 80 114 1.0 2.0 0.00 0.00 0.00 78 1019.3
20260905203359 80 80 3.0 5.0 0.00 0.00 0.00 77 1019.3
20260905202854 79 114 0.0 2.0 0.00 0.00 0.00 79 1019.5
20260905202349 80 38 5.0 6.0 0.00 0.00 0.00 77 1019.5
20260905201845 79 112 0.0 0.0 0.00 0.00 0.00 80 1019.5
20260905201340 79 89 1.0 2.0 0.00 0.00 0.00 80 1019.7
20260905200840 80 124 2.0 3.0 0.00 0.00 0.00 76 1019.6
20260905200336 79 128 0.0 0.0 0.00 0.00 0.00 78 1019.7
20260905195834 80 127 1.0 2.0 0.00 0.00 0.00 77 1019.9
20260905195329 79 110 2.0 3.0 0.00 0.00 0.00 80 1020.0
20260905194825 78 105 0.0 0.0 0.00 0.00 0.00 82 1020.0
20260905194324 79 109 0.0 0.0 0.00 0.00 0.00 81 1019.9
20260905193824 79 99 2.0 3.0 0.00 0.00 0.00 78 1019.8
20260905193319 77 103 1.0 2.0 0.00 0.00 0.00 80 1019.8
20260905192814 78 328 2.0 3.0 0.00 0.00 0.00 80 1019.7
20260905192310 77 4 1.0 2.0 0.00 0.00 0.00 82 1020.0
20260905191810 78 81 0.0 2.0 0.00 0.00 0.00 82 1020.2
20260905191308 78 3 5.0 5.0 0.00 0.00 0.00 80 1020.3
20260905190807 78 96 0.0 2.0 0.00 0.00 0.00 80 1020.3
20260905190301 78 111 0.0 0.0 0.00 0.00 0.00 83 1020.2
20260905185800 78 87 1.0 2.0 0.00 0.00 0.00 80 1020.2
20260905185254 78 82 1.0 3.0 0.00 0.00 0.00 82 1019.7
20260905184748 76 84 1.0 3.0 0.00 0.00 0.00 85 1020.0
20260905184248 76 85 1.0 3.0 0.00 0.00 0.00 84 1019.9
20260905183747 77 115 3.0 3.0 0.00 0.00 0.00 82 1020.1
20260905183242 77 129 3.0 3.0 0.00 0.00 0.00 83 1020.2
20260905182736 77 107 0.0 2.0 0.00 0.00 0.00 83 1020.0
20260905182236 75 71 2.0 3.0 0.00 0.00 0.00 86 1019.8
20260905181732 76 35 3.0 3.0 0.00 0.00 0.00 86 1020.2
20260905181230 75 62 1.0 2.0 0.00 0.00 0.00 87 1020.2
20260905180726 75 114 2.0 2.0 0.00 0.00 0.00 87 1020.2
20260905180220 74 100 0.0 0.0 0.00 0.00 0.00 88 1020.2
20260905175715 74 92 1.0 2.0 0.00 0.00 0.00 88 1020.1
20260905175209 74 96 0.0 0.0 0.00 0.00 0.00 89 1020.3
20260905174705 74 85 0.0 0.0 0.00 0.00 0.00 88 1020.3
20260905174201 74 72 0.0 2.0 0.00 0.00 0.00 89 1020.0
20260905173657 74 96 0.0 0.0 0.00 0.00 0.00 89 1020.3
20260905173152 74 100 0.0 0.0 0.00 0.00 0.00 89 1020.2
20260905172651 74 89 0.0 0.0 0.00 0.00 0.00 89 1020.5
20260905172145 73 84 1.0 2.0 0.00 0.00 0.00 90 1020.3
20260905171641 73 92 2.0 3.0 0.00 0.00 0.00 90 1020.4
20260905171137 73 71 0.0 0.0 0.00 0.00 0.00 91 1020.5
20260905170634 72 90 0.0 2.0 0.00 0.00 0.00 91 1020.5
20260905170129 72 103 2.0 3.0 0.00 0.00 0.00 91 1020.8
20260905165623 73 96 0.0 0.0 0.00 0.00 0.00 90 1020.9